Miscellaneous Local Product
Issued by NWS Hastings, NE

Home | Current Version | Previous Version | Graphics & Text | Print | Product List | Glossary On
Versions: 1 2 3 4 5 6 7 8 9 10 11 12 13 14 15 16 17 18 19 20 21 22 23 24 25 26 27 28 29 30 31 32 33 34 35 36 37 38 39 40 41 42 43 44 45 46 47 48 49 50
000
AXUS43 KGID 290502
MISGRI

GID CWA HOURLY WEATHER ROUNDUP
NATIONAL WEATHER SERVICE HASTINGS NE
1200 AM CDT TUE JUL 29 2014

NOTE: "FAIR" INDICATES FEW OR NO CLOUDS BELOW 12,000 FEET WITH NO
SIGNIFICANT WEATHER AND/OR OBSTRUCTIONS TO VISIBILITY.

...SOUTH CENTRAL NEBRASKA...

CITY           SKY/WX    TMP DP  RH WIND       PRES   REMARKS
GRAND ISLAND   CLEAR     63  57  81 E3        30.23S
HASTINGS       MOCLDY    67  54  63 E6        30.22S
KEARNEY        MOCLDY    64  57  77 E6        30.23F
ORD            CLEAR     61  57  87 CALM      30.22S
YORK           CLEAR     59  57  94 E8        30.22S
AURORA         CLEAR     61  59  92 E3        30.22S
LEXINGTON      MOCLDY    68  59  73 SE7       30.23F
HOLDREGE       MOCLDY    66  58  76 E8        30.23S
HEBRON         PTCLDY    62  56  80 CALM      30.20S

...NEBRASKA PANHANDLE...

CITY           SKY/WX    TMP DP  RH WIND       PRES   REMARKS
CHADRON        CLEAR     67  54  63 E8        30.23S
ALLIANCE       CLEAR     68  58  70 E9        30.24S
SCOTTSBLUFF    CLEAR     70  61  73 E9        30.22F
SIDNEY         MOCLDY    68  53  58 S6        30.26F

...WESTERN AND NORTH CENTRAL NEBRASKA...

CITY           SKY/WX    TMP DP  RH WIND       PRES   REMARKS
VALENTINE      CLEAR     64  51  62 E7        30.25S
AINSWORTH      CLEAR     59  56  88 E3        30.25S
ONEILL         CLEAR     62  53  72 E3        30.25S
BROKEN BOW     CLEAR     63  57  81 SE5       30.23S
IMPERIAL       CLOUDY    68  58  70 SE12      30.23F
NORTH PLATTE   PTCLDY    63  58  83 E7        30.23S
MCCOOK         MOCLDY    68  59  73 E9        30.23S

...EASTERN NEBRASKA...

CITY           SKY/WX    TMP DP  RH WIND       PRES   REMARKS
NORFOLK        CLEAR     58  53  84 SW3       30.22R
SO SIOUX CITY  CLEAR     59  56  89 NW3       30.21R
TEKAMAH        CLEAR     61  56  83 N5        30.19S
ALBION         CLEAR     58  54  88 CALM      30.24S
OMAHA EPPLEY   CLEAR     64  56  75 N6        30.19S
OFFUTT AFB     CLEAR     62  58  85 CALM      30.19R
MILLARD        CLEAR     64  56  75 CALM      30.20R
LINCOLN        CLEAR     61  53  75 NW5       30.21S
NEBRASKA CITY  CLEAR     61  55  79 NW5       30.20R
BEATRICE       CLEAR     58  54  87 CALM      30.20S
FALLS CITY     CLEAR     62  56  80 NW5       30.18S

...NORTHERN KANSAS...

CITY           SKY/WX    TMP DP  RH WIND       PRES   REMARKS
GOODLAND       MOCLDY    68  58  70 S10       30.25F
HILL CITY      MOCLDY    72  57  59 E12       30.22R
NORTON         CLEAR     68  54  60 E9        30.22S
PHILLIPSBURG   CLEAR     70  55  60 E7        30.22R
SMITH CENTER   CLEAR     64  57  77 E7        30.22R
HAYS           MOCLDY    72  57  60 E10       30.22R
RUSSELL        PTCLDY    67  56  67 E9        30.20R
CONCORDIA      CLOUDY    69  57  65 E7        30.20S
SALINA         PTCLDY    74  55  51 E7        30.19R
TOPEKA         CLEAR     67  57  70 CALM      30.18S



USA.gov is the U.S. government's official web portal to all federal, state and local government web resources and services.